Location: Nitra
(0.0000°N, 18.0833°E)
Time: 03:54:24
(UTC+01:00)

ARGOS - Pass Details

Date: 25 September 2022
Orbit: 820 x 834 km, 98.4° (Epoch: 29 November)

Event Time Altitude Azimuth Distance (km) Brightness Sun altitude
Rises 19:09:43 0° 176° (S) 3,354 6.3 -7.6°
Reaches altitude 10° 19:12:06 10° 180° (S) 2,418 5.6 -8.2°
Maximum altitude 19:17:20 57° 258° (WSW) 958 3.9 -9.5°
Drops below altitude 10° 19:22:33 10° 336° (NNW) 2,405 5.9 -10.8°
Sets 19:24:56 0° 340° (NNW) 3,334 6.6 -11.4°
